Regional Weather Roundup
Issued by NWS

Home | Current Version | Previous Version | Graphics & Text | Print | Product List | Glossary On
Versions: 1 2 3 4 5 6 7 8 9 10 11 12 13 14 15 16 17 18 19 20 21 22 23 24 25 26 27 28 29 30 31 32 33 34 35 36 37 38 39 40 41 42 43 44 45 46 47 48 49 50
000
ASUS43 KLOT 231510
RWRIL

ILLINOIS REGIONAL WEATHER ROUNDUP
NATIONAL WEATHER SERVICE CHICAGO/ROMEOVILLE IL
1000 AM CDT WED JUL 23 2014

NOTE: "FAIR" INDICATES FEW OR NO CLOUDS BELOW 12,000 FEET WITH NO
SIGNIFICANT WEATHER AND/OR OBSTRUCTIONS TO VISIBILITY.

* THESE STATIONS ARE NOT UNDER NWS QUALITY CONTROL. THEY ALSO MAY NOT
  REPORT WEATHER SUCH AS PRECIPITATION OR FOG.

ILZ001-002-007-009-015-016-024-231600-
NORTHWEST ILLINOIS

CITY           SKY/WX    TMP DP  RH WIND       PRES   REMARKS
MOLINE         SUNNY     74  60  61 NE9       30.17R
STERLING*      SUNNY     73  61  64 NE14      30.18R
SAVANNA*       SUNNY     73  55  53 NE15      30.19R
$$

ILZ003-004-008-010-011-017-018-231600-
NORTH CENTRAL ILLINOIS

CITY           SKY/WX    TMP DP  RH WIND       PRES   REMARKS
ROCKFORD       MOSUNNY   72  54  53 NE16G24   30.19S
FREEPORT*      SUNNY     68  58  70 N13       30.21S
ROCHELLE*      SUNNY     70  55  59 NE15      30.18S
DE KALB*       SUNNY     68  55  62 NE17G23   30.17S
PERU*          SUNNY     70  57  63 NE15G23   30.15F
$$

ILZ005-006-012>014-019>023-231600-
NORTHEAST ILLINOIS

CITY           SKY/WX    TMP DP  RH WIND       PRES   REMARKS
CHICAGO-OHARE  MOSUNNY   69  53  56 NE22      30.16R
CHICAGO-MIDWAY MOSUNNY   71  58  63 N17G26    30.14R
AURORA         SUNNY     71  54  54 NE17      30.15S
LANSING*       PTSUNNY   68  57  68 N17G24    30.14R
JOLIET*        SUNNY     70  55  59 NE14G21   30.15R
WAUKEGAN       SUNNY     66  54  65 N20G26    30.16S
DUPAGE AIRPORT SUNNY     71  56  58 NE12G22   30.15R
KANKAKEE*      SUNNY     69  59  68 N9G23     30.12S
WHEELING       SUNNY     69  55  60 NE15G25   30.18R
MORRIS*        SUNNY     72  56  57 NE8G17    30.14R
ROMEOVILLE*    SUNNY     69  55  60 NE16G25   30.14S
NORTHERLY ISL    N/A     64  57  78 N16         N/A
$$

LMZ740>746-231600-
SOUTHERN LAKE MICHIGAN

STATION/POSITION SKY/WX   TEMP    WIND        PRES    VSBY  WAVE
                          AIR SEA DIR/SP/G                  HT/PER
                          (F)     (DEG/KT/KT) (MB)    (MI)  (FT/S)
SOUTHERN BUOY              60 59  350/ 19/ 23 1020.7R         5/ 6
WAUKEGAN HARBOR            62      10/ 22/ 25 1022.0F
HARRISON CRIB              63     360/ 22/ 25   N/A
BURNHAM HARBOR             64     340/ 14/ 18   N/A
CALUMET HARBOR             65     350/ 13/ 20 1019.8R
MICHIGAN CITY              65     360/ 22/ 26   N/A
$$

ILZ025>027-034>036-040-047-049-050-058-095>099-231600-
WEST-CENTRAL ILLINOIS

CITY           SKY/WX    TMP DP  RH WIND       PRES   REMARKS
QUINCY         CLOUDY    76  68  76 NE14      30.12S
GALESBURG*     SUNNY     73  62  68 NE14      30.16S
MACOMB*        MOSUNNY   73  63  71 NE16      30.17S
JACKSONVILLE*  SUNNY     78  69  73 NE12      30.12R
PITTSFIELD*    PTSUNNY   78  68  72 NE14      30.12R HX  80
$$

ILZ028>032-037-038-041>044-048-051>054-059>061-231600-
CENTRAL ILLINOIS

CITY           SKY/WX    TMP DP  RH WIND       PRES   REMARKS
PONTIAC        SUNNY     72  57  60 NE14G23   30.13R
BLOOMINGTON    SUNNY     71  57  61 NE24      30.13R
DECATUR        CLOUDY    73 N/A N/A NE13      30.09R
PEORIA         SUNNY     76  59  55 NE12G18   30.13R
LACON*         SUNNY     71  56  60 NE5       30.13F
LINCOLN*       MOSUNNY   75  62  65 N10       30.08R
SPRINGFIELD    PTSUNNY   77  65  66 NE13      30.10R
TAYLORVILLE    PTSUNNY   73  64  73 NE12G17   30.09R
$$

ILZ033-039-045-046-055>057-062-063-231600-
EAST-CENTRAL ILLINOIS

CITY           SKY/WX    TMP DP  RH WIND       PRES   REMARKS
CHAMPAIGN      MOSUNNY   73  62  68 NE14      30.08R
RANTOUL*       PTSUNNY   73  58  60 NE16      30.09S
MATTOON        CLOUDY    69  64  84 N10       30.06S
PARIS*         CLOUDY    70  66  89 N7        30.06S
$$

ILZ079-100>102-231600-
SOUTHWEST ILLINOIS

CITY           SKY/WX    TMP DP  RH WIND       PRES   REMARKS
ALTON          CLOUDY    79  79 100 N15       30.05S FOG     HX  83
BELLEVILLE     CLOUDY    82  78  87 N9        30.04R HX  90
CAHOKIA*       MOSUNNY   85  76  74 NW10      30.03F HX  94
SPARTA*        PTSUNNY   81  75  83 N5        30.04S HX  86
$$

ILZ064>066-069>071-074>076-080>082-084>086-088>090-092>094-231600-
SOUTH-CENTRAL ILLINOIS

CITY           SKY/WX    TMP DP  RH WIND       PRES   REMARKS
CARBONDALE     CLOUDY    75  67  76 SE21      30.07R THUNDER
CAIRO*         PTSUNNY   82  73  72 CALM      30.05R HX  88
MARION         TSTM      73  68  83 SE17G32   30.08F
MT. VERNON     CLOUDY    72  66  83 CALM      30.05F
CENTRALIA*     CLOUDY    74  68  80 S7        30.06R
SALEM*         CLOUDY    76  72  86 S8        30.06R
METROPOLIS*    CLOUDY    78  68  71 NE13G20   30.09R THUNDER HX  80
$$

ILZ067-068-072-073-078-083-087-091-231600-
SOUTHEAST ILLINOIS

CITY           SKY/WX    TMP DP  RH WIND       PRES   REMARKS
FLORA*         CLOUDY    72  70  93 S9        30.05S
FAIRFIELD*     CLOUDY    72  70  94 S3        30.04F
HARRISBURG*    TSTM      69  69 100 SE13G21   30.07F
ROBINSON*      CLOUDY    72  70  93 CALM      30.05F
$$

ABBREVIATIONS USED IN REMARKS
   TC - TEMPERATURE IN CELSIUS
  WCI - WIND CHILL INDEX
   HX - HEAT INDEX
  VSB - VISIBILITY
$$




USA.gov is the U.S. government's official web portal to all federal, state and local government web resources and services.